SCP
0 0 0 0 0 0 0 0 0 0 0 0 0 0 0 0 0 0 0 0 0 0 0 0 0 0 0 0 0 0 0 0 0 0 0 0 0 0 0 0 0 0 0
0 0 0 0 0 0 0 0 0 0 0 0 0 0 0 0 0 0 0 0 0 0 0 0 0 0 0 0 0 0 0 0 0 0 0 0 0 0 0 0 0 0 0
0 0 0 0 0 0 0 0 0 0 0 0 0 0 0 0 0 0 0 0 0 0 0 0 0 0 0 0 0 0 0 0 1 1 1 1 0 0 0 0 0 0 0
0 0 0 0 0 0 0 0 0 0 0 0 0 0 0 0 0 0 0 0 0 0 0 0 0 0 0 0 0 0 0 0 1 1 1 1 1 1 1 0 0 0 0
0 0 0 0 0 0 0 0 0 0 0 0 0 0 0 0 0 0 0 0 0 0 0 0 0 0 0 0 0 0 0 0 1 1 1 1 1 1 1 1 0 0 0
0 0 0 0 0 0 0 0 0 0 0 0 0 0 0 0 0 0 0 0 0 0 0 0 0 0 0 0 0 0 0 0 0 1 1 1 1 1 1 1 1 1 1
0 0 0 0 0 0 0 0 0 0 0 0 0 0 0 0 0 0 0 0 0 0 0 0 0 0 0 0 0 0 0 0 0 1 1 1 1 1 1 1 1 1 1
0 0 0 0 0 0 0 0 0 0 0 0 0 0 0 0 0 0 0 0 0 0 0 0 0 0 0 0 0 0 0 0 1 1 1 1 1 1 1 1 1 1 1
0 0 0 0 0 0 0 0 0 0 0 0 0 0 0 0 0 0 0 0 0 0 0 0 0 0 0 0 0 0 0 1 1 1 1 1 1 1 1 1 1 1 1
0 0 0 0 0 0 0 0 0 0 0 0 0 0 0 0 0 0 0 0 0 0 0 0 0 0 0 0 0 0 0 0 1 1 1 1 1 1 1 1 1 1 1
0 0 0 0 0 0 0 0 0 0 0 0 0 0 0 0 0 0 0 0 0 0 0 0 0 0 0 0 0 0 0 0 0 0 0 0 0 0 0 1 1 1 1
0 0 0 0 0 0 0 0 0 0 0 0 0 0 0 0 0 0 0 0 0 0 0 0 0 0 0 0 0 0 0 0 0 0 0 0 0 0 0 0 0 1 1
0 0 0 0 0 0 0 0 0 0 0 0 0 0 0 1 1 1 0 0 0 0 0 0 0 0 0 0 0 0 0 0 0 0 0 0 0 0 0 0 0 0 0
0 0 0 0 0 0 0 0 0 0 0 0 0 0 0 0 1 1 1 1 0 0 0 0 0 0 0 0 0 0 0 0 0 0 0 0 0 0 0 0 0 0 0
0 0 0 0 0 0 0 0 0 0 0 0 0 0 0 0 0 1 1 1 1 0 0 0 0 0 0 0 0 0 0 0 0 0 0 0 0 0 0 0 0 0 0
0 0 0 0 0 0 0 0 0 0 0 0 1 1 0 0 1 1 1 1 1 1 0 0 0 0 0 0 0 0 0 0 0 0 0 0 0 0 0 0 0 0 0
0 0 0 0 0 0 0 0 0 0 0 0 1 1 1 1 1 1 1 1 1 1 1 0 0 0 0 0 0 1 1 1 0 0 0 0 0 0 0 0 0 0 0
0 0 0 0 0 0 0 0 0 0 0 0 1 1 1 1 1 1 1 1 1 1 1 1 0 0 0 0 0 0 1 1 0 0 0 0 0 0 0 0 0 0 0
0 0 0 0 0 0 0 0 0 0 0 0 1 1 1 1 1 1 1 1 1 1 1 1 1 0 0 0 0 0 0 0 0 0 0 0 0 0 0 0 0 0 0
0 0 0 0 0 0 0 0 0 0 0 0 0 1 1 1 1 1 1 1 1 1 1 1 1 0 0 0 0 0 0 0 0 0 0 0 0 0 0 0 0 0 0
0 0 0 0 0 0 0 0 0 0 0 0 0 0 1 1 1 1 1 1 1 1 1 1 1 1 0 0 0 0 0 0 0 0 0 0 0 0 0 0 0 0 0
0 0 0 0 0 0 0 0 0 0 0 0 0 0 0 1 0 0 0 1 1 1 1 1 1 0 0 0 0 0 0 0 0 0 0 0 0 0 0 0 0 0 0
0 0 0 0 0 0 0 0 0 0 0 0 0 0 0 0 0 0 0 0 0 0 0 0 0 0 0 0 0 0 0 0 0 0 0 0 0 0 0 0 0 0 0
0 0 0 0 0 0 0 0 0 0 0 0 0 0 0 0 0 0 0 0 0 0 0 0 0 0 0 0 0 0 0 0 0 0 0 0 0 0 0 0 0 0 0
0 0 0 0 0 0 0 0 0 0 0 0 0 0 0 0 0 0 0 0 0 0 0 0 0 0 0 0 0 0 0 0 0 0 0 0 0 0 0 0 0 0 0
0 0 0 0 0 0 0 0 0 0 0 0 0 0 0 0 0 0 0 0 0 0 0 0 0 0 0 0 0 0 0 0 0 0 0 0 0 0 0 0 0 0 0
Wind_Speed
4 4 3 3 4 4 4 4 4 5 5 5 5 5 6 6 5 5 4 9 12 14 16 17 17 17 18 17 18 18 17 17 17 16 16 17 17 17 17 17 17 17 17
4 4 4 4 4 4 4 4 5 5 4 4 5 6 6 6 6 6 6 7 12 15 17 18 19 19 19 19 19 19 19 19 18 17 17 18 18 18 18 19 19 19 19
5 4 4 4 4 4 5 4 4 4 4 4 5 6 6 6 7 7 7 6 6 12 16 19 19 19 20 20 20 20 20 20 19 18 18 18 18 19 19 19 20 20 20
6 5 4 4 5 4 4 4 4 3 4 4 4 4 5 5 7 7 7 7 6 6 9 16 18 19 20 20 21 21 21 21 20 19 18 18 19 19 20 20 20 20 21
7 5 4 4 4 4 4 4 4 4 4 4 4 4 5 5 6 6 7 8 7 7 6 9 14 17 19 20 21 21 21 22 21 20 19 18 19 20 20 20 20 20 21
7 6 5 5 4 4 4 4 4 4 4 3 4 5 5 6 6 7 8 7 7 8 7 7 6 9 16 19 20 21 21 22 21 20 20 20 20 21 21 21 21 21 22
7 7 5 5 5 4 5 5 5 5 4 3 3 4 6 8 9 8 7 6 7 7 7 7 6 5 6 13 18 20 21 21 21 21 20 20 21 21 22 22 22 22 22
8 7 7 6 6 5 6 6 5 4 4 3 3 2 4 4 5 6 5 5 6 5 5 6 6 6 5 4 8 16 19 21 21 21 21 21 21 22 22 22 22 22 22
8 8 8 7 6 6 6 7 6 7 5 4 5 4 3 4 4 3 4 5 5 4 5 5 6 6 7 6 6 10 15 18 20 21 21 21 21 22 22 22 22 22 22
8 8 8 8 7 6 7 6 7 6 6 5 4 6 6 3 3 4 3 3 4 5 6 5 6 6 7 6 7 11 13 14 16 18 20 21 21 22 22 22 22 22 22
7 7 7 7 7 6 7 6 6 7 6 6 5 3 6 6 6 6 7 4 4 4 5 6 6 5 6 6 6 9 13 14 15 16 17 19 20 21 21 21 22 22 22
4 6 6 6 7 6 6 7 7 7 7 7 6 5 4 4 5 6 8 7 6 5 5 5 5 6 6 6 8 11 13 14 14 15 15 17 18 19 20 21 21 21 22
3 4 5 6 5 6 6 6 6 6 7 7 7 6 6 6 5 5 7 8 7 6 5 5 6 6 6 6 6 11 12 14 15 15 15 16 17 18 19 20 20 21 21
3 3 4 5 5 5 5 5 5 6 5 7 7 7 6 6 5 6 6 7 9 7 5 7 4 5 5 5 7 11 8 12 13 15 15 16 16 16 17 19 20 20 19
2 3 3 4 5 5 5 5 5 5 5 6 6 7 7 6 5 5 6 6 7 10 9 5 4 4 4 4 7 6 6 10 12 14 15 15 15 16 17 17 19 19 19
1 1 2 3 3 3 4 5 4 5 5 5 5 6 6 5 5 5 5 5 6 8 10 5 4 4 5 5 7 6 7 11 12 12 13 13 14 15 16 16 17 18 18
1 1 1 1 2 2 2 3 4 4 5 4 4 5 6 5 5 4 4 5 5 6 10 8 5 5 6 6 5 5 6 6 6 11 12 13 13 14 14 15 15 16 16
0 1 1 1 1 1 1 2 3 3 3 4 4 4 5 4 5 4 4 5 5 5 7 11 7 5 6 6 6 6 5 5 6 9 11 12 13 13 14 14 15 14 14
1 0 0 0 0 1 1 2 2 2 3 3 3 4 5 4 5 4 4 5 5 5 6 7 8 5 5 4 6 6 6 5 6 7 10 11 12 13 14 14 14 14 13
1 1 1 0 0 1 1 1 2 2 3 3 3 3 4 3 4 5 4 5 5 5 6 6 7 6 5 4 4 5 7 5 6 6 8 9 10 12 13 13 13 13 13
1 1 1 1 1 1 1 2 2 2 3 3 3 3 3 3 3 4 4 4 5 5 5 6 7 6 6 4 5 4 7 7 7 4 5 5 5 6 7 10 11 12 13
1 2 1 1 2 2 3 4 3 3 3 3 3 3 3 3 3 5 6 6 6 6 7 6 6 7 8 6 5 5 6 7 7 3 4 7 4 7 6 6 10 13 13
2 1 1 2 2 3 5 5 5 3 3 2 3 3 4 4 4 4 6 6 6 6 7 7 8 8 8 7 7 7 7 7 9 6 5 8 5 7 6 7 12 12 11
1 1 2 2 2 3 6 6 6 3 2 3 3 4 4 4 5 5 6 6 6 5 6 5 6 7 7 7 7 8 8 8 8 6 4 7 6 6 6 6 9 10 11
1 1 2 2 2 3 5 6 6 3 3 4 4 4 4 4 6 8 6 6 7 6 6 7 9 10 12 12 9 6 6 6 8 6 2 4 5 6 6 5 5 8 10
1 1 2 2 2 2 5 6 6 2 3 3 3 3 4 6 8 9 6 6 8 8 7 7 7 8 8 8 8 6 5 6 7 7 3 3 4 4 6 4 3 3 4
Wind_Direction
194 201 198 195 196 196 196 208 216 223 225 231 234 235 241 247 249 251 248 233 227 236 250 255 257 258 256 255 252 251 252 251 249 246 246 246 247 248 248 248 246 245 244
197 200 201 200 205 208 207 205 216 224 227 228 236 237 237 240 245 245 244 244 237 236 245 253 256 257 256 256 256 254 252 252 251 248 246 246 246 247 247 248 248 248 246
204 201 200 201 204 207 211 215 226 229 231 232 238 240 241 240 242 246 247 245 242 238 240 249 254 256 257 258 258 258 256 255 254 252 250 248 247 248 248 248 248 249 248
204 205 206 208 202 199 199 207 218 229 235 238 244 247 246 244 243 245 247 247 246 247 241 243 249 253 257 259 260 260 259 258 257 256 253 251 249 250 250 250 250 250 249
207 206 211 212 203 201 203 207 211 217 232 241 248 252 254 254 253 252 251 248 246 246 246 245 242 245 252 258 261 261 261 261 260 258 257 255 252 252 251 251 251 252 252
209 208 211 214 210 208 208 210 218 219 230 244 257 261 258 255 253 249 250 250 248 247 246 248 246 243 243 253 260 262 264 264 263 262 261 259 258 256 254 253 253 253 252
211 210 212 214 214 216 215 212 216 224 231 230 260 276 264 250 247 246 240 242 249 249 245 243 243 244 244 247 254 260 264 265 265 264 263 261 261 260 258 257 256 255 255
214 213 214 214 213 219 222 218 215 221 225 198 206 260 289 289 258 242 234 234 243 250 249 245 242 242 244 242 249 255 262 266 267 267 266 264 263 263 261 260 259 259 258
216 214 215 215 216 216 223 222 217 217 227 218 204 211 244 264 303 279 241 235 240 246 253 255 246 244 244 241 248 254 256 261 266 269 269 269 267 266 264 263 262 261 260
216 216 216 216 218 219 222 222 220 220 221 230 221 221 230 241 271 295 285 258 251 253 254 255 251 249 246 245 248 250 256 258 261 265 268 269 270 269 268 266 266 265 263
210 214 215 217 220 223 225 222 221 221 221 227 227 224 236 244 241 259 279 278 270 255 253 251 251 251 250 246 247 251 254 257 259 260 262 266 268 270 269 268 268 267 266
206 209 213 216 220 224 226 227 225 225 225 228 232 227 221 228 235 244 262 272 272 264 255 253 251 252 251 250 252 255 254 258 259 261 262 263 264 266 268 268 268 267 267
209 212 212 219 222 226 227 227 228 231 229 230 233 236 235 239 241 245 258 271 275 272 258 252 245 247 251 250 255 257 257 259 262 263 263 263 264 265 265 266 267 268 268
213 213 213 218 222 225 229 229 231 233 234 235 240 240 244 245 242 244 253 268 280 277 262 258 254 248 255 253 258 259 263 261 262 264 264 264 263 264 264 265 266 267 268
224 219 218 219 223 223 225 228 232 234 235 236 241 242 246 249 247 248 249 250 266 282 283 268 267 267 269 266 268 263 262 265 265 267 266 264 265 266 266 267 268 266 266
264 231 223 225 228 227 229 230 237 236 236 240 241 245 249 252 251 249 249 251 250 265 276 274 271 280 280 278 277 271 267 270 267 269 269 268 269 268 268 270 271 270 266
292 282 258 238 235 235 234 234 241 245 243 248 249 250 255 258 261 263 261 260 261 262 275 282 277 286 285 283 288 280 275 272 276 270 269 270 271 270 270 270 270 270 268
300 296 301 272 262 267 256 246 256 259 255 260 264 263 267 269 265 267 267 267 267 265 272 284 290 291 287 291 293 291 289 284 279 277 273 273 272 271 273 274 272 270 269
325 350 10 293 290 279 273 259 255 261 262 265 270 271 277 279 277 280 279 277 276 279 273 279 285 285 285 297 304 298 296 292 288 285 282 279 277 275 273 273 273 271 269
344 340 320 294 312 324 319 315 303 291 280 276 272 272 275 274 278 285 285 286 290 289 285 282 284 288 286 293 301 300 305 300 293 291 282 283 283 280 277 276 275 272 269
8 357 355 2 6 358 358 345 321 299 291 290 291 290 293 297 302 299 296 298 300 292 291 289 288 293 293 304 299 297 295 300 292 277 290 286 286 281 277 275 274 272 271
24 26 20 22 17 9 8 1 337 313 306 298 299 304 305 295 307 308 301 295 291 290 290 288 288 289 293 297 300 301 301 306 296 291 292 287 273 273 272 270 274 272 269
31 37 31 39 33 16 15 7 357 335 320 309 310 316 322 332 331 325 318 311 302 292 282 283 286 287 294 302 306 301 295 287 282 290 296 285 273 272 274 272 272 268 267
30 25 27 32 36 21 19 10 356 354 342 340 336 327 324 327 339 340 329 320 310 306 299 290 285 290 298 304 300 294 292 290 282 280 262 277 286 284 287 274 268 265 269
27 28 30 31 29 18 18 12 4 353 356 351 347 346 338 328 334 338 328 314 308 305 315 305 298 296 298 299 299 297 295 296 294 290 262 268 289 299 290 277 272 266 266
36 36 27 28 27 12 15 14 6 3 357 345 342 342 339 335 333 334 325 312 304 307 312 310 304 301 298 298 296 282 283 287 290 291 281 280 291 313 302 285 282 283 276